Weather in Saint-Raphael

France     43°25′27″N   6°45′54″E
temp.,
°C
wind,
m/s
gust,
m/s
humid.,
%
clouds,
%
prec.,
mm/h
press.,
hPa
HPBL,
m
8 march, mon
mon801:00+7n1269100 0.0 101751
04:00+7n1272100 0.0 101677
07:00+7nnw1275100 0.0 101542
10:00+13e135252 0.0 1015642
13:00+14se334946 0.0 10141126
16:00+13se2255100 0.0 1013627
19:00+9nne117298 0.0 101388
22:00+9n1269100 0.0 101541
9 march, tue
tue901:00+9nnw2265100 0.0 101537
04:00+9nw2268100 0.0 101438
07:00+8nw117491 0.0 101434
10:00+11wsw245994 0.0 1015407
13:00+15sw454962 0.2 10141426
16:00+13ssw566043 0.4 10131144
19:00+10s358054 1.0 1013250
22:00+9e358437 0.6 1015296
10 march, wed
wed1001:00+8nnw228968 2.1 1015147
04:00+7nw228238 0.0 101644
07:00+6nw238019 0.0 101855
10:00+12se12580 0.0 1019405
13:00+14sse33470 0.0 10201110
16:00+13sse34590 0.0 1019667
19:00+10wnw02730 0.0 102069
22:00+8nw12760 0.0 102343
11 march, thu
thu1101:00+7nnw127716 0.0 102339
04:00+7nw12769 0.0 102238
07:00+6nw127123 0.0 102238
10:00+12ssw115295 0.0 1023436
13:00+15s344281 0.0 1022909
16:00+16wsw144499 0.0 1021752
19:00+12wsw236099 0.0 1021103
22:00+11w486395 0.0 1021208
12 march, fri
fri1201:00+10w476597 0.0 1020183
04:00+10w4771100 0.0 1018200
07:00+10w5872100 0.0 1017224
10:00+16w51052100 0.0 10181098
13:00+18w5843100 0.0 10161392
16:00+18w6936100 0.0 10151896
19:00+13w51251100 0.0 1015637
22:00+12w7144767 0.0 1016854